Location: Passo di Treia
(43.2833°N, 13.3333°E)
Time: 19:38:09
(UTC+00:00)

Cosmos 2026 Rocket - Pass Details

Date: 09 December 2019
Orbit: 940 x 1000 km, 82.9° (Epoch: 22 January)

Event Time Altitude Azimuth Distance (km) Brightness Sun altitude
Rises 17:28:39 0° 187° (S) 3,599 7.2 -20.7°
Reaches altitude 10° 17:31:08 10° 188° (S) 2,654 6.5 -21.1°
Maximum altitude 17:37:12 85° 278° (W) 950 3.9 -22.2°
Drops below altitude 10° 17:43:17 10° 7° (N) 2,667 6.1 -23.3°
Sets 17:45:47 0° 8° (N) 3,619 6.8 -23.7°
